Location: Haliburton Scout Reserve
(45.0900°N, 78.3200°W)
Time: 20:20:12
(UTC-04:00)

STRAND 1 - Pass Details

Date: 31 March 2023
Orbit: 767 x 779 km, 98.4° (Epoch: 06 June)

Event Time Altitude Azimuth Distance (km) Brightness Sun altitude
Rises 06:23:13 0° 144° (SE) 3,244 ? -6.6°
Reaches altitude 10° 06:25:37 10° 138° (SE) 2,319 ? -6.1°
Maximum altitude 06:30:24 42° 69° (ENE) 1,101 ? -5.3°
Drops below altitude 10° 06:35:12 10° 359° (N) 2,327 ? -4.5°
Sets 06:37:36 0° 353° (N) 3,256 ? -4.1°
